AI5YA-13 Weather Reports


time (UTC)temp
C
wind
direction
speed
KPH
gust
KPH
rain 1hr
cm
rain 24hr
cm
rain mn
cm
humidity
%
barometer
mb
20260507195620 21 93 0.0 0.0 0.00 0.00 0.00 45 1017.4
20260507195117 21 122 0.0 0.0 0.00 0.00 0.00 44 1017.3
20260507194614 21 166 0.0 0.0 0.00 0.00 0.00 44 1017.5
20260507194109 21 133 0.0 0.0 0.00 0.00 0.00 44 1017.6
20260507193607 21 102 0.0 0.0 0.00 0.00 0.00 45 1017.7
20260507193104 20 176 0.0 0.0 0.00 0.00 0.00 46 1017.7
20260507192600 20 161 0.0 0.0 0.00 0.00 0.00 46 1017.9
20260507192057 20 125 0.0 0.0 0.00 0.00 0.00 47 1018.0
20260507191552 20 120 0.0 0.0 0.00 0.00 0.00 47 1018.1
20260507191049 20 140 0.0 0.0 0.00 0.00 0.00 48 1018.0
20260507190547 20 180 0.0 0.0 0.00 0.00 0.00 47 1018.5
20260507190046 19 93 0.0 0.0 0.00 0.00 0.00 49 1018.5
20260507185543 20 152 0.0 0.0 0.00 0.00 0.00 48 1018.4
20260507185039 20 86 0.0 0.0 0.00 0.00 0.00 48 1018.7
20260507184538 19 89 0.0 0.0 0.00 0.00 0.00 48 1019.0
20260507184036 18 132 0.0 0.0 0.00 0.00 0.00 49 1019.0
20260507183531 19 47 0.0 0.0 0.00 0.00 0.00 50 1018.8
20260507183028 18 57 0.0 0.0 0.00 0.00 0.00 50 1018.8
20260507182525 18 100 0.0 0.0 0.00 0.00 0.00 51 1019.1
20260507182021 18 112 0.0 0.0 0.00 0.00 0.00 52 1018.9
20260507181518 18 99 0.0 0.0 0.00 0.00 0.00 51 1019.1
20260507181014 18 95 0.0 0.0 0.00 0.00 0.00 52 1019.5
20260507180510 18 114 0.0 0.0 0.00 0.00 0.00 51 1019.5
20260507180007 17 140 0.0 0.0 0.00 0.00 0.00 53 1019.6
20260507175504 17 80 0.0 0.0 0.00 0.00 0.00 53 1019.8
20260507175001 17 59 0.0 0.0 0.00 0.00 0.00 54 1019.5
20260507174458 17 77 0.0 0.0 0.00 0.00 0.00 53 1019.8
20260507173956 17 116 0.0 0.0 0.00 0.00 0.00 54 1019.8
20260507173453 17 119 0.0 0.0 0.00 0.00 0.00 53 1019.8
20260507172950 17 145 0.0 0.0 0.00 0.00 0.00 55 1019.9
20260507172446 17 79 0.0 0.0 0.00 0.00 0.00 55 1020.2
20260507171942 17 91 0.0 0.0 0.00 0.00 0.00 54 1020.3
20260507171438 17 105 0.0 0.0 0.00 0.00 0.00 55 1020.2
20260507170936 16 72 0.0 0.0 0.00 0.00 0.00 58 1020.7
20260507170432 17 103 0.0 0.0 0.00 0.00 0.00 55 1020.4
20260507165929 16 105 0.0 0.0 0.00 0.00 0.00 57 1020.7
20260507165425 16 90 0.0 0.0 0.00 0.00 0.00 57 1020.6
20260507164920 15 100 0.0 0.0 0.00 0.00 0.00 59 1020.6
20260507164418 15 98 0.0 0.0 0.00 0.00 0.00 58 1020.6
20260507163915 15 93 0.0 0.0 0.00 0.00 0.00 60 1020.7
20260507163412 15 69 0.0 0.0 0.00 0.00 0.00 61 1020.8
20260507162909 15 85 0.0 0.0 0.00 0.00 0.00 60 1020.8
20260507162404 15 96 0.0 0.0 0.00 0.00 0.00 61 1021.0
20260507161902 15 92 0.0 0.0 0.00 0.00 0.00 62 1021.2
20260507161358 14 59 0.0 0.0 0.00 0.00 0.00 63 1021.1
20260507160855 14 86 0.0 0.0 0.00 0.00 0.00 63 1021.0
20260507160350 15 110 0.0 0.0 0.00 0.00 0.00 63 1021.0
20260507155847 14 110 0.0 0.0 0.00 0.00 0.00 64 1021.1
20260507155342 14 146 0.0 0.0 0.00 0.00 0.00 65 1021.2
20260507154840 13 94 0.0 0.0 0.00 0.00 0.00 66 1021.2
20260507154337 13 116 0.0 0.0 0.00 0.00 0.00 65 1021.3
20260507153834 13 95 0.0 0.0 0.00 0.00 0.00 67 1021.5
20260507153330 13 105 0.0 0.0 0.00 0.00 0.00 69 1021.3
20260507152827 13 120 0.0 0.0 0.00 0.00 0.00 68 1021.4
20260507152323 13 91 0.0 0.0 0.00 0.00 0.00 69 1021.4
20260507151819 12 98 0.0 0.0 0.00 0.00 0.00 69 1021.5
20260507151315 12 72 0.0 0.0 0.00 0.00 0.00 70 1021.5
20260507150813 12 111 0.0 0.0 0.00 0.00 0.00 71 1021.5
20260507150309 12 95 0.0 0.0 0.00 0.00 0.00 71 1021.7
20260507145805 12 100 0.0 0.0 0.00 0.00 0.00 71 1021.5
20260507145306 12 97 0.0 0.0 0.00 0.00 0.00 71 1021.4
20260507144759 12 86 0.0 0.0 0.00 0.00 0.00 72 1021.8
20260507144256 12 91 0.0 0.0 0.00 0.00 0.00 72 1021.8
20260507143753 12 110 0.0 0.0 0.00 0.00 0.00 72 1021.4
20260507143250 11 107 0.0 0.0 0.00 0.00 0.00 74 1021.9
20260507142746 11 85 0.0 0.0 0.00 0.00 0.00 74 1021.8
20260507142243 11 72 0.0 0.0 0.00 0.00 0.00 74 1021.4
20260507141739 11 84 0.0 0.0 0.00 0.00 0.00 75 1021.5
20260507141236 11 107 0.0 0.0 0.00 0.00 0.00 75 1021.7
20260507140732 11 94 0.0 0.0 0.00 0.00 0.00 76 1021.7
20260507140230 11 100 0.0 0.0 0.00 0.00 0.00 75 1021.9
20260507135727 11 119 0.0 0.0 0.00 0.00 0.00 77 1021.5
20260507135224 11 97 0.0 0.0 0.00 0.00 0.00 77 1021.3
20260507134720 11 91 0.0 0.0 0.00 0.00 0.00 78 1021.7
20260507134216 10 79 0.0 0.0 0.00 0.00 0.00 78 1021.3
20260507133713 11 71 0.0 0.0 0.00 0.00 0.00 78 1021.3
20260507133210 10 85 0.0 0.0 0.00 0.00 0.00 79 1021.7
20260507132707 10 97 0.0 0.0 0.00 0.00 0.00 79 1021.4
20260507132203 10 107 0.0 0.0 0.00 0.00 0.00 80 1021.4
20260507131700 10 93 0.0 0.0 0.00 0.00 0.00 80 1021.5
20260507131158 10 116 0.0 0.0 0.00 0.00 0.00 80 1021.1
20260507130654 10 69 0.0 0.0 0.00 0.00 0.00 80 1021.1
20260507130152 10 94 0.0 0.0 0.00 0.00 0.00 80 1021.3
20260507125651 10 93 0.0 0.0 0.00 0.00 0.00 81 1020.8
20260507125148 10 81 0.0 0.0 0.00 0.00 0.00 81 1020.7
20260507124644 10 98 0.0 0.0 0.00 0.00 0.00 81 1020.8
20260507124142 10 132 0.0 0.0 0.00 0.00 0.00 81 1020.6
20260507123640 10 86 0.0 0.0 0.00 0.00 0.00 81 1020.3
20260507123137 10 85 0.0 0.0 0.00 0.00 0.00 81 1020.4
20260507122632 10 110 0.0 0.0 0.00 0.00 0.00 81 1020.3
20260507122128 10 89 0.0 0.0 0.00 0.00 0.00 81 1020.4
20260507121624 10 112 0.0 0.0 0.00 0.00 0.00 81 1020.4
20260507121120 10 81 0.0 0.0 0.00 0.00 0.00 81 1020.4
20260507120616 10 87 0.0 0.0 0.00 0.00 0.00 81 1020.4
20260507120113 10 81 0.0 0.0 0.00 0.00 0.00 80 1020.2
20260507115609 10 83 0.0 0.0 0.00 0.00 0.00 80 1020.4
20260507115105 10 78 0.0 0.0 0.00 0.00 0.00 80 1020.3
20260507114601 10 74 0.0 0.0 0.00 0.00 0.00 79 1020.4
20260507114059 10 82 0.0 0.0 0.00 0.00 0.00 79 1020.3
20260507113555 10 89 0.0 0.0 0.00 0.00 0.00 79 1020.6
20260507113053 10 98 0.0 0.0 0.00 0.00 0.00 79 1020.0
20260507112551 10 85 0.0 0.0 0.00 0.00 0.00 78 1020.3
20260507112047 10 103 0.0 0.0 0.00 0.00 0.00 78 1020.2
20260507111544 10 86 0.0 0.0 0.00 0.00 0.00 78 1020.2
20260507111041 10 79 0.0 0.0 0.00 0.00 0.00 78 1020.2
20260507110537 11 83 0.0 0.0 0.00 0.00 0.00 77 1020.6
20260507110034 11 83 0.0 0.0 0.00 0.00 0.00 77 1020.0
20260507105531 11 87 0.0 0.0 0.00 0.00 0.00 77 1020.3
20260507105027 11 94 0.0 0.0 0.00 0.00 0.00 76 1020.2
20260507104524 11 85 0.0 0.0 0.00 0.00 0.00 76 1020.1
20260507104021 11 97 0.0 0.0 0.00 0.00 0.00 76 1019.9
20260507103517 11 85 0.0 0.0 0.00 0.00 0.00 76 1020.4
20260507103013 11 85 0.0 0.0 0.00 0.00 0.00 75 1020.2
20260507102510 11 80 0.0 0.0 0.00 0.00 0.00 75 1020.0
20260507102007 11 72 0.0 0.0 0.00 0.00 0.00 74 1020.3
20260507101502 11 82 0.0 0.0 0.00 0.00 0.00 74 1019.8
20260507100959 11 91 0.0 0.0 0.00 0.00 0.00 74 1020.3
20260507100456 11 75 0.0 0.0 0.00 0.00 0.00 74 1020.1
20260507095954 11 88 0.0 0.0 0.00 0.00 0.00 73 1020.1
20260507095452 11 90 0.0 0.0 0.00 0.00 0.00 73 1020.0
20260507094948 11 100 0.0 0.0 0.00 0.00 0.00 73 1020.1
20260507094444 11 85 0.0 0.0 0.00 0.00 0.00 72 1019.9
20260507093941 11 86 0.0 0.0 0.00 0.00 0.00 72 1020.0
20260507093439 12 96 0.0 0.0 0.00 0.00 0.00 72 1020.1
20260507092937 12 90 0.0 0.0 0.00 0.00 0.00 72 1020.0
20260507092433 12 79 0.0 0.0 0.00 0.00 0.00 71 1019.9
20260507091930 12 99 0.0 0.0 0.00 0.00 0.00 71 1019.8
20260507091427 12 78 0.0 0.0 0.00 0.00 0.00 71 1019.9
20260507090922 12 85 0.0 0.0 0.00 0.00 0.00 70 1019.2
20260507090419 12 89 0.0 0.0 0.00 0.00 0.00 70 1019.1
20260507085915 12 103 0.0 0.0 0.00 0.00 0.00 69 1019.2
20260507085412 12 95 0.0 0.0 0.00 0.00 0.00 69 1019.1
20260507084910 12 95 0.0 0.0 0.00 0.00 0.00 69 1019.3
20260507084406 12 89 0.0 0.0 0.00 0.00 0.00 68 1019.2
20260507083903 12 77 0.0 0.0 0.00 0.00 0.00 68 1019.1
20260507083400 12 75 0.0 0.0 0.00 0.00 0.00 67 1019.1
20260507082856 12 81 0.0 0.0 0.00 0.00 0.00 67 1019.0
20260507082352 12 75 0.0 0.0 0.00 0.00 0.00 67 1019.3
20260507081849 13 97 0.0 0.0 0.00 0.00 0.00 66 1019.3
20260507081345 13 105 0.0 0.0 0.00 0.00 0.00 66 1018.9
20260507080842 13 98 0.0 0.0 0.00 0.00 0.00 65 1019.2
20260507080338 13 77 0.0 0.0 0.00 0.00 0.00 65 1018.9
20260507075834 13 78 0.0 0.0 0.00 0.00 0.00 64 1019.0
20260507075330 13 94 0.0 0.0 0.00 0.00 0.00 64 1019.0
20260507074826 13 92 0.0 0.0 0.00 0.00 0.00 64 1018.9
20260507074324 13 98 0.0 0.0 0.00 0.00 0.00 64 1018.9
20260507073821 13 66 0.0 0.0 0.00 0.00 0.00 63 1019.0
20260507073318 14 87 0.0 0.0 0.00 0.00 0.00 63 1018.5
20260507072815 14 86 0.0 0.0 0.00 0.00 0.00 62 1018.2
20260507072312 14 100 0.0 0.0 0.00 0.00 0.00 62 1018.2
20260507071809 14 113 0.0 0.0 0.00 0.00 0.00 62 1018.2
20260507071306 14 126 0.0 0.0 0.00 0.00 0.00 61 1018.2
20260507070803 14 81 0.0 0.0 0.00 0.00 0.00 61 1018.5
20260507070300 14 92 0.0 0.0 0.00 0.00 0.00 61 1018.2
20260507065757 14 99 0.0 0.0 0.00 0.00 0.00 60 1018.2
20260507065253 15 87 0.0 0.0 0.00 0.00 0.00 60 1018.0
20260507064750 15 94 0.0 0.0 0.00 0.00 0.00 60 1017.7
20260507064249 15 115 0.0 0.0 0.00 0.00 0.00 59 1017.9
20260507063746 15 94 0.0 0.0 0.00 0.00 0.00 59 1017.5
20260507063243 15 101 0.0 0.0 0.00 0.00 0.00 59 1017.7
20260507062740 15 119 0.0 0.0 0.00 0.00 0.00 58 1017.7
20260507062237 15 104 0.0 0.0 0.00 0.00 0.00 58 1017.5
20260507061735 15 108 0.0 0.0 0.00 0.00 0.00 57 1017.6
20260507061233 15 92 0.0 0.0 0.00 0.00 0.00 57 1017.6
20260507060731 15 113 0.0 0.0 0.00 0.00 0.00 57 1017.4
20260507060227 15 101 0.0 0.0 0.00 0.00 0.00 57 1017.7
20260507055723 16 99 0.0 0.0 0.00 0.00 0.00 56 1017.5
20260507055219 16 79 0.0 0.0 0.00 0.00 0.00 56 1017.8
20260507054715 16 99 0.0 0.0 0.00 0.00 0.00 56 1017.5
20260507054213 16 107 0.0 0.0 0.00 0.00 0.00 55 1017.1
20260507053710 16 100 0.0 0.0 0.00 0.00 0.00 55 1017.4
20260507053208 16 92 0.0 0.0 0.00 0.00 0.00 54 1017.3
20260507052706 16 110 0.0 0.0 0.00 0.00 0.00 53 1016.9
20260507052202 16 100 0.0 0.0 0.00 0.00 0.00 53 1017.3
20260507051700 16 120 0.0 0.0 0.00 0.00 0.00 52 1017.1
20260507051156 17 115 0.0 0.0 0.00 0.00 0.00 52 1016.9
20260507050653 17 148 0.0 0.0 0.00 0.00 0.00 52 1016.9
20260507050150 17 122 0.0 0.0 0.00 0.00 0.00 51 1016.7
20260507045647 17 107 0.0 0.0 0.00 0.00 0.00 51 1016.6
20260507045143 17 166 0.0 0.0 0.00 0.00 0.00 51 1016.6
20260507044640 17 128 0.0 0.0 0.00 0.00 0.00 51 1016.5
20260507044137 17 116 0.0 0.0 0.00 0.00 0.00 50 1016.9
20260507043633 17 126 0.0 0.0 0.00 0.00 0.00 51 1016.7
20260507043130 17 112 0.0 0.0 0.00 0.00 0.00 50 1016.8
20260507042627 18 114 0.0 0.0 0.00 0.00 0.00 51 1016.5
20260507042122 18 98 0.0 0.0 0.00 0.00 0.00 51 1016.8
20260507041619 18 114 0.0 0.0 0.00 0.00 0.00 51 1016.3
20260507041116 18 110 0.0 0.0 0.00 0.00 0.00 50 1016.4
20260507040613 18 111 0.0 0.0 0.00 0.00 0.00 50 1016.3
20260507040109 18 120 0.0 0.0 0.00 0.00 0.00 49 1016.2
20260507035605 18 107 0.0 0.0 0.00 0.00 0.00 48 1015.7
20260507035101 18 123 0.0 0.0 0.00 0.00 0.00 48 1015.6
20260507034558 19 104 0.0 0.0 0.00 0.00 0.00 48 1015.5
20260507034056 19 124 0.0 0.0 0.00 0.00 0.00 48 1015.3
20260507033554 19 101 0.0 0.0 0.00 0.00 0.00 48 1015.4
20260507033051 19 127 0.0 0.0 0.00 0.00 0.00 47 1015.2
20260507032548 19 98 0.0 0.0 0.00 0.00 0.00 47 1014.8
20260507032044 20 95 0.0 0.0 0.00 0.00 0.00 46 1014.8
20260507031541 20 112 0.0 0.0 0.00 0.00 0.00 46 1014.7
20260507031038 20 106 0.0 0.0 0.00 0.00 0.00 45 1014.6
20260507030534 20 154 0.0 0.0 0.00 0.00 0.00 45 1014.7
20260507030032 20 139 0.0 0.0 0.00 0.00 0.00 44 1014.4
20260507025529 20 112 0.0 0.0 0.00 0.00 0.00 43 1014.3
20260507025026 21 126 0.0 0.0 0.00 0.00 0.00 41 1014.3
20260507024524 21 120 0.0 0.0 0.00 0.00 0.00 40 1014.3
20260507024020 21 135 0.0 0.0 0.00 0.00 0.00 40 1014.2
20260507023516 21 135 0.0 0.0 0.00 0.00 0.00 39 1013.6
20260507023015 21 146 0.0 0.0 0.00 0.00 0.00 38 1014.0
20260507022511 21 163 0.0 0.0 0.00 0.00 0.00 38 1013.5
20260507022006 22 108 0.0 0.0 0.00 0.00 0.00 38 1013.5
20260507021502 22 137 0.0 0.0 0.00 0.00 0.00 38 1013.4
20260507020959 22 136 0.0 0.0 0.00 0.00 0.00 38 1013.4
20260507020456 22 130 0.0 0.0 0.00 0.00 0.00 38 1013.4
20260507015953 22 169 0.0 0.0 0.00 0.00 0.00 38 1013.3
20260507015452 22 148 0.0 0.0 0.00 0.00 0.00 37 1013.3
20260507014948 22 128 0.0 0.0 0.00 0.00 0.00 37 1013.3
20260507014445 22 145 0.0 0.0 0.00 0.00 0.00 36 1013.2
20260507013941 23 158 0.0 0.0 0.00 0.00 0.00 36 1013.1
20260507013438 23 147 0.0 0.0 0.00 0.00 0.00 35 1013.0
20260507012935 23 147 0.0 0.0 0.00 0.00 0.00 35 1013.2
20260507012432 23 129 0.0 0.0 0.00 0.00 0.00 34 1013.1
20260507011928 23 170 0.0 0.0 0.00 0.00 0.00 34 1012.9
20260507011426 23 124 0.0 0.0 0.00 0.00 0.00 34 1013.1
20260507010926 23 138 0.0 0.0 0.00 0.00 0.00 33 1013.0
20260507010421 23 138 0.0 0.0 0.00 0.00 0.00 33 1012.6
20260507005919 24 141 0.0 0.0 0.00 0.00 0.00 33 1012.8
20260507005415 24 142 0.0 0.0 0.00 0.00 0.00 33 1012.6
20260507004912 24 143 0.0 0.0 0.00 0.00 0.00 32 1012.4
20260507004409 24 148 0.0 0.0 0.00 0.00 0.00 32 1012.8
20260507003906 24 159 0.0 0.0 0.00 0.00 0.00 33 1012.5
20260507003401 24 160 0.0 0.0 0.00 0.00 0.00 33 1012.9
20260507002857 24 98 0.0 0.0 0.00 0.00 0.00 33 1012.5
20260507002353 24 123 0.0 0.0 0.00 0.00 0.00 33 1012.5
20260507001850 24 146 0.0 0.0 0.00 0.00 0.00 33 1012.5
20260507001347 24 165 0.0 0.0 0.00 0.00 0.00 33 1012.3
20260507000844 25 99 0.0 0.0 0.00 0.00 0.00 33 1012.8
20260507000339 24 99 0.0 0.0 0.00 0.00 0.00 33 1012.6
20260506235836 25 130 0.0 0.0 0.00 0.00 0.00 33 1012.4
20260506235333 25 158 0.0 0.0 0.00 0.00 0.00 32 1012.3
20260506234829 24 102 0.0 0.0 0.00 0.00 0.00 32 1012.5
20260506234327 24 100 0.0 0.0 0.00 0.00 0.00 32 1012.5
20260506233824 25 178 0.0 0.0 0.00 0.00 0.00 32 1012.8
20260506233319 25 122 0.0 0.0 0.00 0.00 0.00 32 1012.6
20260506232817 25 153 0.0 0.0 0.00 0.00 0.00 32 1012.4
20260506232312 25 138 0.0 0.0 0.00 0.00 0.00 32 1012.3
20260506231809 24 127 0.0 0.0 0.00 0.00 0.00 34 1012.6
20260506231307 24 160 0.0 0.0 0.00 0.00 0.00 33 1012.5
20260506230804 25 145 0.0 0.0 0.00 0.00 0.00 33 1012.6
20260506230301 24 97 0.0 0.0 0.00 0.00 0.00 33 1012.5
20260506225757 24 144 0.0 0.0 0.00 0.00 0.00 34 1012.5
20260506225254 24 159 0.0 0.0 0.00 0.00 0.00 34 1012.6
20260506224751 24 116 0.0 0.0 0.00 0.00 0.00 33 1012.5
20260506224249 25 211 0.0 0.0 0.00 0.00 0.00 34 1012.5
20260506223744 25 104 0.0 0.0 0.00 0.00 0.00 33 1012.5
20260506223240 24 214 0.0 0.0 0.00 0.00 0.00 34 1012.4
20260506222737 24 146 0.0 0.0 0.00 0.00 0.00 34 1012.4
20260506222233 23 126 0.0 0.0 0.00 0.00 0.00 35 1012.6
20260506221731 24 110 0.0 0.0 0.00 0.00 0.00 34 1012.6
20260506221229 25 233 0.0 0.0 0.00 0.00 0.00 34 1012.6
20260506220726 25 146 0.0 0.0 0.00 0.00 0.00 34 1012.4
20260506220220 23 206 0.0 0.0 0.00 0.00 0.00 35 1013.0
20260506215717 23 108 0.0 0.0 0.00 0.00 0.00 37 1012.8
20260506215213 23 120 0.0 1.6 0.00 0.00 0.00 35 1012.8
20260506214710 23 117 0.0 0.0 0.00 0.00 0.00 36 1012.8
20260506214207 23 154 0.0 0.0 0.00 0.00 0.00 36 1012.8
20260506213705 23 117 0.0 0.0 0.00 0.00 0.00 37 1013.0
20260506213202 23 125 0.0 0.0 0.00 0.00 0.00 36 1012.9
20260506212659 22 112 0.0 0.0 0.00 0.00 0.00 38 1013.1
20260506212154 23 119 0.0 0.0 0.00 0.00 0.00 37 1013.0
20260506211650 22 90 0.0 0.0 0.00 0.00 0.00 38 1013.2
20260506211147 23 102 0.0 0.0 0.00 0.00 0.00 36 1013.3
20260506210644 23 124 0.0 0.0 0.00 0.00 0.00 37 1013.4
20260506210140 22 147 0.0 0.0 0.00 0.00 0.00 38 1013.3
20260506205638 22 163 0.0 0.0 0.00 0.00 0.00 37 1013.6
20260506205132 23 124 0.0 0.0 0.00 0.00 0.00 37 1013.5
20260506204631 22 123 0.0 0.0 0.00 0.00 0.00 37 1013.7
20260506204127 22 143 0.0 0.0 0.00 0.00 0.00 38 1013.7
20260506203626 22 97 0.0 0.0 0.00 0.00 0.00 39 1013.7
20260506203122 22 146 0.0 0.0 0.00 0.00 0.00 38 1013.7
20260506202620 22 110 0.0 0.0 0.00 0.00 0.00 39 1013.7
20260506202116 22 98 0.0 0.0 0.00 0.00 0.00 40 1014.0
20260506201613 22 155 0.0 0.0 0.00 0.00 0.00 38 1014.2
20260506201109 22 100 0.0 0.0 0.00 0.00 0.00 39 1014.0
20260506200606 22 84 0.0 0.0 0.00 0.00 0.00 39 1014.6